Flag for Germany Weather past 2 weeks in Cloppenburg, Lower Saxony, Germany

Now
68 °F

Mild.


Feels Like: 68 °F
Forecast: 63 / 77 °F
Wind: 5 mph from Northeast

Location: Meppen-Mil

Current Time: Jul 25, 2014 at 8:55:17 PM

Latest Report: Jul 25, 2014 at 7:20 PM


Visibility: 6 mi

Pressure: 29.95 "Hg

Humidity: 83%

Dew point: 63 °F

Location of CloppenburgLocation

Historic Weather in Cloppenburg — Graph

°F

Cloppenburg temperature yesterday

Maximum temperature yesterday: 77 °F (at 1:20 PM)
Minimum temperature yesterday: 55 °F (at 5:20 AM)
Average temperature yesterday: 68 °F

Past Weeks' High & Low Weather Summary

 TemperatureHumidityPressure
High93 °F (Jul 19, 2:20 PM)94% (Jul 11, 12:20 AM)30.18 "Hg (Jul 11, 12:20 AM)
Low54 °F (Jul 12, 6:20 AM)21% (Jul 19, 3:20 PM)29.74 "Hg (Jul 20, 6:20 PM)
Average70 °F68%30.00 "Hg
* Reported Jul 10 7:20 PM — Jul 25 7:20 PM, Cloppenburg, Weather by CustomWeather, © 2014

Note: Actual official high and low records may vary slightly from our data, if they occured in-between our weather recording intervals... More about our weather records

Advertising

Cloppenburg weather history for previous 24 hours

 ConditionsComfort  
Time TempWeatherWind HumidityBarometerVisibility
7:20 PM
Jul 25
68 °FMild.5 mph83%29.95 "Hg6 mi
6:20 PM68 °FMild.3 mph83%29.95 "Hg5 mi
5:20 PM68 °FMild.5 mph83%29.95 "Hg5 mi
4:20 PM66 °FMild.5 mph88%29.95 "Hg4 mi
3:20 PM64 °FMild.3 mph94%29.98 "Hg3 mi
2:20 PM63 °FMild.3 mph94%29.98 "Hg3 mi
1:20 PM63 °FRain. Fog.5 mph88%30.01 "Hg3 mi
12:20 PM63 °FRain. More clouds than sun.6 mph94%30.01 "Hg4 mi
11:20 AM63 °FRain. More clouds than sun.5 mph88%30.01 "Hg4 mi
10:20 AM63 °FRain. Partly sunny.7 mph88%30.04 "Hg4 mi
9:20 AM63 °FPartly sunny.5 mph88%30.01 "Hg5 mi
8:20 AM61 °FLight rain. Partly sunny.3 mph88%30.04 "HgN/A
7:20 AM63 °FLight rain. Passing clouds.3 mph83%30.04 "HgN/A
6:20 AM63 °FPassing clouds.5 mph83%30.01 "HgN/A
5:20 AM63 °FMild.3 mph83%30.04 "HgN/A
4:20 AM61 °FCool.3 mph88%30.04 "HgN/A
3:20 AM63 °FMild.5 mph83%30.04 "HgN/A
2:20 AM63 °FMild.2 mph83%30.04 "HgN/A
1:20 AM63 °FMild.5 mph77%30.04 "HgN/A
12:20 AM64 °FMild.5 mph73%30.04 "HgN/A
11:20 PM
Jul 24
66 °FMild.5 mph64%30.04 "HgN/A
10:20 PM68 °FMild.5 mph64%30.04 "HgN/A
9:20 PM70 °FMild.2 mph64%30.04 "HgN/A
8:20 PM72 °FMild.3 mph61%30.01 "HgN/A
Weather by CustomWeather, © 2014

See weather overviewHow to use our weather pages